Weather History for Ortonville, MN

Change the Weather History Date:

Wednesday, January 11, 2012

  Actual Average (KAQP) Record (KAQP)
Temperature  
Mean Temperature 22 °F -  
Max Temperature 39 °F 17 °F 39 °F (2002)
Min Temperature 6 °F 2 °F -16 °F (1997)
Degree Days  
Heating Degree Days 42    
Moisture  
Dew Point 16 °F    
Average Humidity 75    
Maximum Humidity 93    
Minimum Humidity 61    
Precipitation  
Precipitation 0.01 in - - ()
Sea Level Pressure  
Sea Level Pressure 29.88 in    
Wind  
Wind Speed 19 mph (NNW)    
Max Wind Speed 34 mph    
Max Gust Speed 45 mph    
Visibility 8 miles    
Events Rain , Snow    
Averages and records for this station are not official NWS values.
T = Trace of Precipitation, MM = Missing Value Source: NWS Daily Summary

Daily Weather History Graph

Daily Weather History Graph

Search for Another Location

Airport:

Trip Planner

Search our weather history database for the weather conditions in past years. The results will help you decide how hot, cold, wet, or windy it might be!

Date:

Astronomy

Jan. 11, 2012 Rise Set
Actual Time 8:03 AM CST 5:03 PM CST
Civil Twilight 7:30 AM CST 5:37 PM CST
Nautical Twilight 6:53 AM CST 6:14 PM CST
Astronomical Twilight 6:17 AM CST 6:49 PM CST
Moon 8:13 PM CST (1/11) 9:07 AM CST (1/11)
Length of Visible Light 10h 07m
Length of Day
9h 00m
Waning Gibbous, 93% of the Moon is Illuminated
Jan 11
Waning Gibbous
Jan 16
Last Quarter
Jan 23
New
Jan 30
First Quarter
Feb 7
Full

Hourly Weather History & Observations

Time (CST) Temp. Windchill Dew Point Humidity Pressure Visibility Wind Dir Wind Speed Gust Speed Precip Events Conditions
12:13 AM 39.2 °F 32.5 °F 26.6 °F 61% 29.63 in 10.0 mi NNW 10.4 mph - N/A   Clear
12:34 AM 39.2 °F 32.0 °F 26.6 °F 61% 29.62 in 10.0 mi North 11.5 mph - N/A   Clear
12:54 AM 39.2 °F 31.2 °F 26.6 °F 61% 29.64 in 10.0 mi NNW 13.8 mph 20.7 mph N/A   Clear
1:13 AM 39.2 °F 30.5 °F 28.4 °F 65% 29.64 in 10.0 mi North 16.1 mph - N/A   Clear
1:34 AM 39.2 °F 30.8 °F 28.4 °F 65% 29.65 in 10.0 mi NNW 15.0 mph 19.6 mph N/A   Scattered Clouds
1:54 AM 39.2 °F 30.2 °F 30.2 °F 70% 29.66 in 10.0 mi North 17.3 mph 23.0 mph N/A   Overcast
2:13 AM 39.2 °F 29.8 °F 30.2 °F 70% 29.68 in 10.0 mi NNW 18.4 mph 25.3 mph N/A   Overcast
2:34 AM 37.4 °F 27.8 °F 33.8 °F 87% 29.68 in 10.0 mi NNW 17.3 mph - N/A   Overcast
2:53 AM 37.4 °F 26.4 °F 33.8 °F 87% 29.69 in 10.0 mi NNW 23.0 mph 29.9 mph N/A   Light Drizzle
3:14 AM 33.8 °F 22.2 °F 30.2 °F 87% 29.69 in 5.0 mi NNW 20.7 mph 28.8 mph N/A Rain Rain
3:34 AM 33.8 °F 21.9 °F 30.2 °F 87% 29.70 in 2.0 mi NNW 21.9 mph 29.9 mph 0.01 in Snow Light Snow
3:54 AM 33.8 °F 22.5 °F 30.2 °F 87% 29.71 in 2.5 mi NNW 19.6 mph 23.0 mph 0.01 in Snow Light Snow
3:55 AM 33.8 °F 22.8 °F 30.2 °F 87% 29.71 in 3.0 mi NNW 18.4 mph 23.0 mph 0.01 in Snow Light Snow
4:14 AM 32.0 °F 20.1 °F 30.2 °F 93% 29.71 in 4.0 mi NNW 19.6 mph 26.5 mph N/A Snow Light Snow
4:34 AM 32.0 °F 21.6 °F 30.2 °F 93% 29.72 in 3.0 mi NNW 15.0 mph 21.9 mph N/A Snow Light Snow
4:53 AM 32.0 °F 20.5 °F 30.2 °F 93% 29.73 in 2.0 mi NNW 18.4 mph 26.5 mph N/A Snow Light Snow
5:14 AM 32.0 °F 20.1 °F 30.2 °F 93% 29.74 in 2.0 mi NNW 19.6 mph 27.6 mph N/A Snow Light Snow
5:34 AM 32.0 °F 19.2 °F 30.2 °F 93% 29.75 in 1.8 mi NNW 23.0 mph 33.4 mph N/A Snow Light Snow
6:14 AM 32.0 °F 20.1 °F 30.2 °F 93% 29.78 in 1.8 mi NNW 19.6 mph 31.1 mph N/A Snow Light Snow
6:34 AM 32.0 °F 19.8 °F 30.2 °F 93% 29.79 in 2.5 mi NNW 20.7 mph 28.8 mph N/A Snow Light Snow
6:54 AM 32.0 °F 18.1 °F 30.2 °F 93% 29.81 in 1.8 mi NNW 27.6 mph 38.0 mph N/A Snow Light Snow
7:14 AM 28.4 °F 14.4 °F 26.6 °F 93% 29.83 in 1.8 mi NNW 23.0 mph 34.5 mph N/A Snow Light Snow
7:34 AM 26.6 °F 9.3 °F 23.0 °F 86% 29.84 in 3.0 mi North 34.5 mph 42.6 mph N/A Snow Light Snow
7:54 AM 26.6 °F 10.3 °F 21.2 °F 80% 29.86 in 7.0 mi North 29.9 mph 39.1 mph N/A Snow Light Snow
8:13 AM 24.8 °F 7.9 °F 19.4 °F 80% 29.86 in 5.0 mi NNW 29.9 mph 42.6 mph N/A Snow Light Snow
8:54 AM 23.0 °F 6.3 °F 15.8 °F 74% 29.88 in 10.0 mi NNW 26.5 mph 39.1 mph N/A   Scattered Clouds
9:14 AM 21.2 °F 2.4 °F 14.0 °F 74% 29.90 in 2.5 mi NNW 32.2 mph 43.7 mph N/A   Haze
9:34 AM 21.2 °F 4.9 °F 12.2 °F 68% 29.92 in 10.0 mi NNW 23.0 mph 38.0 mph N/A   Clear
9:54 AM 21.2 °F 2.4 °F 12.2 °F 68% 29.93 in 7.0 mi NNW 32.2 mph 44.9 mph N/A   Clear
10:14 AM 19.4 °F 0.2 °F 12.2 °F 74% 29.93 in 10.0 mi NNW 31.1 mph 41.4 mph N/A   Scattered Clouds
10:33 AM 21.2 °F 4.9 °F 12.2 °F 68% 29.94 in 10.0 mi NNW 23.0 mph 34.5 mph N/A   Mostly Cloudy
10:54 AM 19.4 °F 0.2 °F 12.2 °F 74% 29.95 in 10.0 mi NNW 31.1 mph 39.1 mph N/A   Overcast
11:14 AM 19.4 °F 0.8 °F 12.2 °F 74% 29.94 in 10.0 mi NNW 28.8 mph 35.7 mph N/A   Overcast
11:33 AM 19.4 °F 1.4 °F 12.2 °F 74% 29.94 in 10.0 mi North 26.5 mph 35.7 mph N/A   Overcast
11:54 AM 19.4 °F 2.5 °F 12.2 °F 74% 29.95 in 10.0 mi North 23.0 mph 32.2 mph N/A   Overcast
12:34 PM 19.4 °F 2.5 °F 12.2 °F 74% 29.95 in 10.0 mi NNW 23.0 mph 27.6 mph N/A   Overcast
12:54 PM 19.4 °F 4.1 °F 12.2 °F 74% 29.94 in 10.0 mi NNW 18.4 mph 31.1 mph N/A   Overcast
1:13 PM 19.4 °F 3.2 °F 12.2 °F 74% 29.94 in 7.0 mi NNW 20.7 mph 28.8 mph N/A Snow Light Snow
1:34 PM 19.4 °F 3.2 °F 14.0 °F 80% 29.94 in 2.0 mi NNW 20.7 mph 26.5 mph N/A Snow Light Snow
1:54 PM 17.6 °F -1.0 °F 10.4 °F 73% 29.95 in 5.0 mi NNW 26.5 mph 33.4 mph N/A Snow Light Snow
2:14 PM 17.6 °F -0.3 °F 8.6 °F 68% 29.95 in 10.0 mi NNW 24.2 mph 32.2 mph N/A   Overcast
2:34 PM 17.6 °F 0.1 °F 10.4 °F 73% 29.96 in 10.0 mi NNW 23.0 mph 27.6 mph N/A   Overcast
2:54 PM 17.6 °F -0.6 °F 8.6 °F 68% 29.97 in 10.0 mi NNW 25.3 mph 32.2 mph N/A   Overcast
3:33 PM 15.8 °F -2.3 °F 8.6 °F 73% 29.99 in 10.0 mi NNW 23.0 mph 31.1 mph N/A   Overcast
3:52 PM 15.8 °F -2.7 °F 6.8 °F 68% 29.99 in 10.0 mi NNW 24.2 mph 33.4 mph N/A   Overcast
4:21 PM 15.8 °F -1.9 °F 5.0 °F 62% 30.01 in 10.0 mi NNW 21.9 mph 32.2 mph N/A   Overcast
4:26 PM 15.8 °F -1.9 °F 5.0 °F 62% 30.01 in 10.0 mi NNW 21.9 mph 31.1 mph N/A   Overcast
5:01 PM 15.8 °F -0.6 °F 6.8 °F 68% 30.00 in 10.0 mi NNW 18.4 mph 21.9 mph N/A   Overcast
5:21 PM 15.8 °F 2.1 °F 6.8 °F 68% 30.00 in 10.0 mi NNW 12.7 mph 23.0 mph N/A   Overcast
5:37 PM 15.8 °F -1.1 °F 6.8 °F 68% 29.99 in 10.0 mi NNW 19.6 mph 24.2 mph N/A   Overcast
6:14 PM 15.8 °F 2.1 °F 6.8 °F 68% 29.99 in 10.0 mi NNW 12.7 mph 19.6 mph N/A   Overcast
6:34 PM 15.8 °F -1.1 °F 8.6 °F 73% 29.99 in 10.0 mi NNW 19.6 mph 25.3 mph N/A   Overcast
6:53 PM 15.8 °F -1.5 °F 8.6 °F 73% 29.99 in 10.0 mi NNW 20.7 mph 26.5 mph N/A   Overcast
7:14 PM 15.8 °F -1.5 °F 8.6 °F 73% 30.00 in 5.0 mi NNW 20.7 mph 28.8 mph N/A Snow Light Snow
7:33 PM 15.8 °F -1.5 °F 6.8 °F 68% 30.00 in 10.0 mi NW 20.7 mph 28.8 mph N/A   Overcast
8:13 PM 14.0 °F -3.4 °F 5.0 °F 67% 29.99 in 10.0 mi NW 19.6 mph 33.4 mph N/A   Overcast
8:34 PM 12.2 °F -5.3 °F 5.0 °F 73% 30.00 in 10.0 mi NNW 18.4 mph 28.8 mph N/A   Overcast
8:54 PM 12.2 °F -4.8 °F 5.0 °F 73% 30.00 in 10.0 mi NNW 17.3 mph 28.8 mph N/A   Overcast
9:13 PM 10.4 °F -7.7 °F 3.2 °F 73% 30.00 in 10.0 mi NNW 18.4 mph 29.9 mph N/A   Mostly Cloudy
9:34 PM 10.4 °F -7.7 °F 1.4 °F 67% 30.00 in 10.0 mi NNW 18.4 mph 25.3 mph N/A   Clear
9:54 PM 10.4 °F -8.2 °F 1.4 °F 67% 30.01 in 10.0 mi NNW 19.6 mph 26.5 mph N/A   Clear
10:13 PM 8.6 °F -8.3 °F 1.4 °F 73% 30.01 in 10.0 mi NNW 15.0 mph 25.3 mph N/A   Scattered Clouds
10:34 PM 8.6 °F -8.9 °F 1.4 °F 73% 30.01 in 10.0 mi NNW 16.1 mph 24.2 mph N/A   Scattered Clouds
10:54 PM 8.6 °F -9.5 °F 1.4 °F 73% 30.01 in 10.0 mi NNW 17.3 mph - N/A   Scattered Clouds
11:13 PM 6.8 °F -12.9 °F -0.4 °F 72% 30.01 in 10.0 mi North 19.6 mph - N/A   Scattered Clouds
11:34 PM 6.8 °F -10.0 °F -0.4 °F 72% 30.01 in 10.0 mi North 13.8 mph 21.9 mph N/A   Scattered Clouds
11:54 PM 6.8 °F -10.7 °F -0.4 °F 72% 30.01 in 10.0 mi NNW 15.0 mph - N/A   Overcast